Theta_e
315 322 325 326 326 324 326 330 330 328 329 329 328 327 325 326 327 328 328 327 327 327 328 326 324 322 319 317 316 316 317 317 319 320 320 319 319 319 321 323 325 327 326 325 324 322 322 323 324 325 326 323 318 315 316 319 318 319 323 325 325 326 326 324 324 318 317 320 317 313 314 317 319 317 316 317 317 318 320 321 323 324 323 321 322 322 319 321
312 317 323 326 326 326 326 329 330 329 329 329 329 327 325 325 326 327 326 325 325 325 326 326 325 323 319 317 316 317 318 319 320 320 319 319 319 319 320 322 325 326 327 326 326 325 324 324 325 326 327 326 322 317 315 317 316 320 323 321 326 330 323 319 319 314 314 316 315 314 315 315 317 317 316 318 317 318 321 322 321 323 323 322 322 322 321 321
311 312 317 322 326 326 326 328 329 329 329 329 328 327 325 325 325 325 325 324 323 323 324 324 322 320 318 317 317 319 320 321 322 321 320 320 320 319 319 320 323 326 326 326 326 326 325 325 324 325 326 324 323 319 316 316 316 317 318 321 330 326 317 315 316 314 314 315 313 314 314 314 315 316 316 317 317 319 321 321 319 321 322 322 322 323 323 323
311 311 313 317 322 326 326 327 329 329 328 329 327 326 325 324 325 324 324 323 321 321 321 321 319 318 318 319 320 321 321 322 322 321 321 320 320 320 320 320 321 325 326 326 326 326 326 325 323 323 323 320 319 319 316 315 315 315 316 323 324 315 315 316 314 314 314 313 313 314 314 314 315 316 316 315 319 321 319 318 319 319 319 321 322 322 323 324
310 311 311 313 317 322 327 327 328 329 328 328 327 325 324 324 324 324 323 322 320 319 319 318 317 317 318 320 322 322 322 323 323 321 321 320 320 320 320 322 322 324 326 326 326 325 324 324 322 322 321 319 318 320 319 315 314 314 316 318 316 311 315 316 313 314 314 313 313 313 314 315 315 315 315 316 319 321 318 317 318 317 317 318 320 322 324 324
310 311 312 314 314 317 323 327 327 328 329 328 327 325 324 324 324 323 322 321 320 318 317 316 316 317 320 321 321 321 321 323 323 321 322 321 320 320 321 323 324 325 326 326 325 323 322 321 321 321 320 319 318 321 321 317 313 315 315 313 313 312 313 315 313 314 313 313 313 313 314 314 314 315 315 315 318 318 317 318 318 317 317 317 319 321 323 324
311 311 312 314 315 315 320 325 326 327 329 328 327 325 324 323 323 323 322 321 320 319 318 317 318 319 320 320 320 321 321 322 323 321 323 322 321 321 323 325 325 326 326 325 324 322 321 320 320 320 319 320 319 319 321 318 314 315 317 313 312 312 312 313 313 313 313 313 314 313 314 313 314 316 314 314 317 317 316 317 317 317 317 318 320 321 321 321
310 310 311 313 315 316 317 323 326 326 327 328 327 325 324 323 322 323 321 321 321 320 319 319 319 319 319 320 321 324 322 321 323 322 322 323 321 322 325 326 326 326 325 324 324 323 322 320 320 319 319 320 319 319 318 319 317 316 319 317 313 312 312 313 312 313 313 313 314 313 313 313 314 314 313 315 317 317 316 317 316 317 317 318 319 320 320 321
308 308 309 311 314 314 315 320 323 324 325 327 327 325 324 323 321 322 321 321 321 321 321 320 320 320 320 321 322 324 323 320 321 321 322 323 322 323 325 326 326 326 326 325 324 325 323 321 321 321 320 320 319 318 316 320 322 317 317 316 314 313 312 313 313 313 313 314 313 314 313 313 313 313 314 316 317 316 316 316 316 317 317 318 318 319 320 320
306 306 307 308 311 312 314 316 317 319 322 324 326 326 324 323 321 321 321 321 322 322 322 321 321 321 322 323 324 324 323 320 321 322 322 323 322 322 325 326 326 326 326 324 321 322 323 322 322 322 323 321 318 316 314 320 322 316 314 313 313 314 312 312 313 313 313 313 313 315 314 312 312 313 316 317 316 316 316 316 316 316 316 317 318 318 319 320
306 306 306 307 309 311 312 313 312 314 317 321 325 325 323 323 322 321 320 320 322 322 322 322 322 323 323 324 324 324 323 321 322 322 323 324 323 323 325 327 326 325 323 319 318 320 321 322 322 322 322 320 318 316 313 316 317 313 313 314 314 315 314 312 312 313 313 313 313 313 313 312 311 313 316 316 315 316 315 316 316 316 316 317 318 318 319 319
305 305 306 306 308 309 310 311 311 312 314 318 323 324 323 323 321 320 320 320 322 322 321 322 324 324 324 325 325 323 323 323 324 324 323 324 325 325 326 326 326 323 320 319 318 318 320 321 321 321 321 320 319 319 316 314 314 313 313 316 318 316 316 315 312 312 313 313 313 312 313 314 313 314 316 315 314 315 314 315 316 316 316 316 318 319 319 319
306 306 305 306 307 309 310 310 310 310 313 317 321 323 323 322 321 319 319 319 320 321 319 320 323 325 325 325 325 323 323 323 324 324 322 325 326 326 327 325 323 320 319 321 321 319 319 320 320 320 320 320 319 319 317 313 311 313 311 314 320 319 319 316 312 312 312 313 313 312 316 321 318 314 315 315 314 314 314 314 315 315 315 316 317 318 319 319
307 306 306 305 306 308 309 309 309 309 311 315 319 323 324 321 320 319 318 318 318 318 318 318 320 324 324 324 324 322 323 323 324 323 321 325 326 326 326 323 320 318 319 322 322 321 320 319 320 319 318 319 317 316 318 317 315 316 313 314 317 321 325 319 311 312 313 313 313 313 316 322 320 315 314 314 314 314 314 314 314 315 315 315 317 317 318 319
308 308 307 306 305 307 309 309 309 309 310 312 315 319 323 323 320 319 318 317 317 317 317 317 317 321 324 324 323 322 323 323 323 322 320 324 326 325 325 322 319 319 321 321 320 319 318 318 318 318 315 315 316 316 321 323 321 320 319 318 316 318 325 320 310 311 314 313 311 313 316 318 317 314 314 314 314 314 314 315 314 315 315 315 316 316 317 317
309 309 308 307 305 306 307 308 308 308 308 310 312 315 320 323 322 321 320 318 317 316 316 318 319 320 323 323 322 322 323 323 322 321 321 324 326 325 324 320 318 319 320 319 318 317 317 317 316 316 314 315 318 319 320 320 320 321 322 321 318 315 318 317 313 310 311 313 311 312 316 319 317 312 312 314 313 313 314 314 314 314 315 315 315 315 316 316
308 308 308 307 306 305 306 307 307 307 308 309 311 313 317 322 324 323 323 321 320 319 318 320 321 321 322 320 320 321 322 323 322 321 322 324 325 326 324 318 316 318 317 316 316 316 316 316 315 315 314 315 319 319 320 319 320 320 318 319 318 315 314 315 316 311 308 312 313 312 313 318 318 312 311 313 312 312 313 314 314 314 315 315 315 315 315 316
307 308 308 306 306 305 305 306 306 307 308 308 310 312 314 320 325 324 324 324 322 322 322 321 322 323 323 319 318 320 322 323 323 321 322 324 325 326 324 318 315 316 315 314 315 315 315 313 314 316 315 315 316 318 322 322 321 319 315 317 316 314 313 313 315 313 310 312 313 314 313 314 316 313 311 311 311 311 312 313 314 314 315 315 315 315 315 315
306 307 308 307 305 305 304 305 305 306 308 308 310 313 313 318 325 324 325 325 322 321 322 321 322 324 323 320 318 320 321 323 323 321 322 324 324 324 322 317 315 314 313 314 314 313 313 313 314 317 316 315 315 317 320 319 320 318 315 316 316 314 314 312 313 311 310 312 313 313 314 313 315 316 313 310 311 311 311 313 312 313 314 314 315 315 315 315
305 306 307 307 305 304 304 304 305 306 307 308 311 314 314 317 321 319 321 323 321 321 321 321 322 321 320 319 318 319 321 323 323 322 322 323 324 322 318 315 314 313 314 315 315 312 313 316 317 317 316 314 314 317 316 314 315 316 316 317 315 315 314 312 312 310 308 312 315 313 313 312 314 317 313 309 310 310 310 312 312 313 314 314 314 314 315 315
305 305 306 307 306 304 304 304 305 306 307 308 311 315 314 316 319 317 318 322 322 321 321 321 322 320 320 320 318 319 321 322 322 321 321 322 323 321 317 317 315 314 314 313 313 312 314 318 317 316 315 313 314 317 315 313 313 315 318 317 314 314 314 312 311 311 309 311 315 314 312 312 313 314 313 309 309 309 310 311 312 314 314 314 314 314 315 315
305 304 305 306 306 305 304 304 305 306 307 308 311 313 311 313 316 316 318 321 320 320 320 321 322 319 319 320 319 320 322 321 321 321 320 320 322 321 318 318 318 315 312 311 312 313 315 317 316 313 311 311 314 315 315 313 313 317 318 316 315 315 314 314 312 312 310 311 315 314 312 313 313 313 312 308 308 310 311 311 312 314 314 314 314 314 315 315
304 304 304 305 305 305 305 304 305 306 307 309 310 311 310 311 314 316 319 320 318 317 319 321 320 318 318 318 319 320 321 321 321 320 319 319 320 320 319 319 320 316 312 312 314 314 315 316 314 310 310 312 314 314 315 314 314 316 317 316 315 314 313 314 313 312 311 310 312 313 312 313 312 313 313 310 308 310 312 312 312 312 313 314 314 314 314 314
305 304 304 304 304 305 306 305 305 306 307 309 309 309 310 312 313 317 318 318 317 316 318 319 318 317 318 318 319 320 320 320 320 320 318 318 316 317 319 319 320 316 312 312 313 315 316 314 310 309 311 314 314 314 315 315 315 314 315 315 315 314 312 312 313 312 312 312 311 311 313 316 316 315 315 312 308 308 310 310 311 312 313 314 314 313 314 315
305 305 304 304 305 306 307 306 305 305 307 308 309 308 309 310 312 314 315 318 318 316 316 317 316 317 318 319 319 319 319 318 319 320 319 317 315 314 317 318 319 317 313 312 313 316 317 311 308 311 313 314 313 314 315 315 316 315 315 315 313 313 311 311 314 312 313 317 313 311 315 323 326 321 318 316 312 310 308 306 309 313 313 313 314 314 315 315
304 305 305 304 304 306 307 307 306 305 306 307 308 308 309 309 311 312 313 319 320 315 315 317 317 318 317 318 318 318 320 318 317 319 319 316 314 314 316 316 316 316 312 311 313 315 314 309 309 312 313 314 315 314 314 315 315 315 316 315 313 313 311 312 314 311 314 319 313 310 314 321 323 321 320 319 317 316 312 307 307 311 313 312 313 315 315 316
304 304 305 304 304 305 307 307 306 305 306 307 308 309 309 309 311 311 312 320 322 317 316 317 317 318 317 316 317 319 321 318 317 318 317 315 313 313 316 314 313 313 310 311 315 314 311 310 310 312 312 314 314 313 314 313 314 317 316 315 316 313 312 314 314 312 316 317 313 312 313 315 315 316 318 316 315 318 317 314 310 309 312 314 314 316 315 315
303 304 305 305 304 305 306 307 307 305 305 307 307 309 310 310 311 311 313 321 321 317 317 316 315 317 316 315 316 318 318 318 318 318 316 315 313 311 313 313 313 313 309 313 318 312 309 312 312 311 311 312 312 313 314 312 315 319 318 316 316 314 314 315 313 314 315 313 313 315 313 313 317 320 320 314 312 315 317 319 315 310 313 314 313 315 314 314
303 303 304 305 304 305 306 307 307 306 305 306 307 308 309 311 313 312 316 321 318 315 317 316 315 315 314 314 315 314 315 316 317 317 316 316 314 312 312 312 312 313 310 313 318 311 308 310 310 310 311 311 311 312 312 312 314 316 316 317 318 318 318 316 313 314 313 311 313 316 314 313 318 325 323 315 313 316 318 319 314 309 313 315 313 314 314 314
302 303 304 305 305 305 306 307 307 307 306 305 307 308 309 312 314 315 319 320 317 315 316 315 314 313 314 314 314 313 314 314 313 313 314 314 313 312 310 309 311 314 312 312 316 312 308 308 308 309 310 309 309 309 309 311 311 311 314 318 317 320 320 317 318 315 312 313 314 317 317 313 315 322 320 316 318 319 317 317 314 309 311 313 313 313 313 313
301 301 303 305 305 305 306 307 306 307 308 307 306 308 312 314 314 316 318 318 317 316 315 315 314 314 315 315 315 313 313 312 312 313 314 313 313 311 310 310 311 314 313 312 314 312 309 309 308 309 309 308 309 309 308 309 309 312 320 319 316 319 317 314 319 316 313 316 313 314 315 312 313 318 317 316 318 316 312 314 316 311 309 312 312 313 313 313
301 300 301 304 306 306 306 307 307 306 308 310 308 308 313 316 315 318 317 315 317 317 315 316 314 314 315 315 315 313 313 313 312 314 314 313 313 312 314 314 312 315 316 314 315 313 312 313 310 308 309 308 310 312 311 311 311 315 319 317 315 318 316 315 318 317 316 316 312 311 312 311 312 314 315 315 313 312 310 310 312 309 308 312 312 312 312 312
301 300 300 301 304 306 306 307 307 307 307 310 311 310 312 315 316 318 317 314 317 317 315 316 314 314 316 315 314 312 313 313 313 314 314 313 313 311 313 315 312 317 317 315 315 314 315 316 311 310 310 308 310 312 312 313 313 314 316 317 317 316 315 316 316 315 317 317 313 311 310 313 315 314 314 315 312 312 311 309 310 308 308 311 311 312 312 312
301 301 301 300 302 305 306 307 307 307 307 308 312 312 312 314 316 317 316 313 314 315 316 315 314 315 316 315 314 312 313 314 312 313 313 313 313 311 311 313 312 315 315 314 315 316 318 317 313 312 311 310 311 311 312 314 313 313 317 320 318 318 319 318 317 318 320 319 314 310 311 317 320 316 313 310 308 310 311 311 311 310 311 311 311 312 313 313
301 301 301 301 301 303 305 306 307 307 307 308 311 313 313 316 316 316 315 312 312 314 316 315 314 316 316 314 313 313 313 313 313 313 313 312 312 311 311 311 311 312 314 315 315 314 316 315 312 310 308 310 311 310 311 313 313 313 318 319 317 319 321 318 317 319 318 318 314 311 315 319 318 315 311 308 308 308 307 309 310 310 312 311 311 312 312 313
301 301 302 301 302 302 303 306 307 306 307 309 311 313 314 316 316 315 314 311 311 313 314 315 315 317 316 313 313 313 312 312 313 313 314 313 312 312 312 312 310 310 313 315 314 314 314 313 311 309 308 308 310 310 309 312 314 313 313 315 315 317 319 316 314 313 311 314 316 314 315 316 315 314 313 311 312 311 308 307 307 309 311 310 311 313 313 314
300 300 301 301 301 302 303 305 307 306 307 309 310 312 313 314 313 313 313 312 312 313 315 317 317 317 316 313 313 313 312 313 313 314 314 314 313 312 312 312 310 309 311 312 313 314 314 313 311 312 311 308 306 308 308 308 312 314 314 313 313 313 318 320 317 313 310 313 317 315 313 314 314 315 316 315 313 313 312 310 307 308 310 310 312 313 313 313
300 300 300 301 301 301 302 304 306 306 307 308 309 311 312 312 312 312 312 312 313 314 316 317 317 317 316 315 314 312 314 315 314 314 315 314 315 314 311 312 310 308 308 309 311 314 315 315 311 310 312 310 307 310 311 308 308 312 314 312 313 316 317 317 316 315 313 313 316 317 314 311 312 314 316 315 314 314 313 312 313 311 309 310 312 313 312 312
299 300 300 301 301 301 302 304 305 306 307 309 309 310 310 311 312 312 311 312 313 315 316 317 317 317 316 316 315 312 314 317 314 315 315 315 316 314 311 312 312 308 306 308 313 313 314 318 315 310 310 311 310 311 313 312 309 310 310 309 312 317 316 315 316 316 317 314 314 318 316 312 312 314 314 313 313 315 313 313 315 312 309 311 312 312 312 311
299 300 301 301 301 302 302 303 305 306 308 309 309 310 310 311 312 312 311 312 314 315 317 317 316 317 316 315 314 312 314 316 314 315 316 315 316 314 312 313 312 309 306 308 314 313 311 316 317 311 309 311 314 314 314 314 311 311 313 311 311 312 314 316 315 315 318 316 314 315 315 315 316 314 312 312 312 312 313 314 312 309 309 311 311 311 312 311
300 300 301 301 302 302 303 304 306 306 308 309 309 309 309 311 312 312 311 312 314 314 315 316 316 316 316 315 314 312 313 314 314 316 316 315 315 314 313 313 311 309 308 308 312 314 312 314 315 313 311 312 315 314 312 314 313 313 313 312 312 311 313 315 313 313 313 315 319 316 312 318 320 313 310 313 313 311 311 311 309 309 310 311 311 311 312 312
300 301 302 302 302 303 304 306 307 307 308 309 310 309 310 312 312 312 311 312 314 313 313 315 316 315 315 315 313 312 313 313 314 316 315 314 315 313 312 311 309 308 309 310 311 312 313 315 315 314 313 314 313 308 306 310 313 315 313 313 313 312 313 314 315 316 313 312 316 314 311 316 317 312 311 312 311 309 308 308 307 309 310 311 311 311 312 312
300 301 302 303 303 303 305 307 307 307 308 309 309 310 311 312 312 311 311 312 313 314 313 314 314 314 315 314 313 313 313 313 313 314 314 313 313 311 309 309 310 309 309 312 311 310 312 315 315 313 313 315 314 309 306 308 312 314 314 314 313 312 318 321 320 319 317 314 314 313 312 312 310 311 308 305 306 306 306 307 308 310 311 310 311 311 312 312
301 302 303 304 304 304 306 308 308 308 309 309 310 310 311 312 312 311 311 312 313 314 314 314 314 314 314 314 313 313 314 314 313 313 314 314 311 309 308 308 310 310 310 311 312 311 313 315 315 314 314 315 316 314 311 310 311 314 315 315 315 315 317 318 315 313 314 317 318 315 313 312 315 317 310 305 308 307 305 307 309 309 311 310 311 312 311 312
302 303 305 306 306 306 307 308 309 309 309 309 310 311 312 311 311 311 312 312 313 314 315 314 314 314 314 314 314 313 314 315 314 313 313 313 309 307 307 308 310 310 310 311 310 312 317 317 314 315 315 314 315 315 314 313 311 313 315 314 315 315 314 313 313 313 313 315 316 314 312 313 316 318 312 311 315 312 307 308 309 309 310 310 311 311 311 312
303 306 308 308 308 307 307 308 309 309 309 309 310 311 312 311 311 311 312 313 312 313 314 314 313 314 313 314 314 314 314 315 314 312 312 311 311 308 306 308 310 309 310 311 310 313 319 317 313 313 314 313 314 315 315 314 312 313 314 314 314 313 312 313 315 315 313 313 313 312 312 313 313 316 318 316 317 317 312 308 308 310 310 309 311 311 312 312
305 309 310 310 309 308 308 308 309 309 309 310 310 312 312 311 311 311 312 313 312 311 312 312 313 313 313 314 315 314 315 315 313 313 312 311 312 310 306 307 310 310 310 310 311 314 318 315 313 315 314 312 316 317 314 313 313 313 313 313 313 312 312 314 315 314 315 314 313 313 314 314 314 320 325 321 318 319 312 306 308 311 309 310 311 311 312 311
308 310 310 310 310 309 308 308 309 309 309 310 311 312 312 311 311 312 312 312 311 311 312 312 313 313 313 314 315 314 314 314 313 313 313 311 311 310 308 308 309 310 310 310 310 312 314 313 312 314 313 313 317 319 315 314 313 313 313 313 313 312 312 313 313 313 314 313 313 316 317 314 313 317 321 319 316 314 310 307 309 310 309 310 310 310 311 311
310 310 310 310 311 310 309 309 309 309 310 311 312 312 311 311 311 312 313 312 311 311 312 313 313 313 313 313 315 314 314 314 313 313 313 311 310 309 309 309 309 309 309 311 311 310 311 313 313 313 312 312 315 315 313 313 314 313 313 313 312 312 312 312 312 312 313 312 313 317 317 314 313 315 316 315 311 309 309 308 309 310 310 310 310 311 312 311
310 311 310 310 311 310 309 309 309 309 310 311 312 312 312 312 312 312 312 313 312 312 312 313 313 313 313 313 314 315 314 314 314 313 312 312 310 310 310 310 309 309 309 310 310 309 311 313 312 312 311 310 312 312 311 312 314 313 313 312 312 312 311 311 312 312 312 312 312 313 313 312 312 311 310 310 309 308 307 308 309 310 310 310 310 311 311 312
310 311 311 310 310 310 309 309 309 309 310 311 312 312 312 312 312 312 313 312 312 313 313 313 313 313 313 313 314 314 314 313 314 313 311 311 310 310 310 309 309 309 310 311 311 311 313 313 311 313 313 309 310 311 312 312 312 312 313 313 312 312 311 311 311 311 312 312 312 312 312 312 312 310 309 309 308 307 307 309 310 311 311 311 311 311 311 312
311 311 310 310 310 310 309 309 309 309 310 311 312 312 313 313 312 313 313 312 312 312 312 313 313 312 312 313 314 314 313 312 312 311 310 310 309 309 309 308 308 309 310 311 313 315 317 316 313 314 314 309 308 311 314 314 313 312 313 312 311 310 311 311 311 311 311 311 312 312 312 314 314 311 310 311 309 308 308 310 311 311 311 312 311 311 312 312
Wind_Speed
23 25 36 38 38 40 41 43 43 42 40 38 37 35 34 33 32 31 29 30 30 31 32 33 33 32 31 29 27 24 22 21 21 22 24 23 22 21 19 19 18 14 12 10 10 8 8 10 11 10 10 7 1 4 4 4 4 3 2 2 2 3 4 5 6 7 4 2 4 3 8 8 6 11 10 6 9 8 11 17 13 17 17 10 10 8 19 29
25 21 29 36 38 40 40 40 42 41 40 38 37 36 35 34 33 31 32 32 31 31 32 33 32 32 31 28 25 22 19 19 21 24 25 23 22 23 22 20 19 16 13 11 11 10 9 8 8 9 9 9 6 1 3 3 4 3 2 2 4 5 4 4 6 7 3 3 6 5 7 9 7 10 13 6 6 7 8 14 13 15 18 14 11 10 20 29
28 23 22 27 33 39 38 38 40 40 39 38 37 37 35 34 33 33 33 33 32 32 32 32 32 31 29 26 24 20 19 20 22 27 27 25 24 23 23 22 20 19 16 12 10 9 8 7 5 7 9 7 8 5 2 2 2 1 3 2 5 5 4 4 5 5 2 5 7 7 6 10 9 10 13 7 5 7 9 15 15 16 21 19 14 12 21 29
30 26 21 18 26 36 38 38 40 43 41 39 39 37 35 34 33 34 34 33 33 32 32 32 31 30 27 25 22 20 20 16 20 30 28 27 27 24 25 24 23 23 18 13 11 8 8 8 5 8 9 6 5 7 2 3 1 1 3 2 3 3 2 4 4 2 1 3 6 6 3 7 11 11 13 10 5 5 15 24 23 21 22 21 18 14 22 29
27 27 22 18 21 27 35 39 39 43 43 41 40 37 35 34 33 35 34 34 34 33 33 32 31 29 26 25 23 23 19 6 11 24 26 26 27 26 25 24 25 25 20 15 12 11 10 10 8 10 9 5 5 4 3 1 3 1 3 3 3 3 2 4 2 0 3 3 4 4 3 6 9 12 15 15 9 8 17 25 25 23 21 21 20 18 23 29
24 28 23 16 16 17 28 39 37 40 44 42 40 38 36 35 34 35 35 34 33 33 32 32 30 29 27 26 24 24 19 6 1 6 17 24 24 24 23 22 25 24 21 18 16 14 13 13 10 12 8 3 6 5 5 4 1 1 3 2 0 1 3 6 5 4 6 3 3 4 6 7 8 9 13 18 19 14 11 16 20 22 20 20 21 20 23 28
21 28 26 18 12 11 20 34 36 36 43 43 40 40 37 36 36 36 36 35 34 34 32 32 30 29 28 26 24 23 23 15 3 5 6 21 21 22 23 23 24 22 21 20 19 18 16 16 13 13 9 2 5 7 7 6 2 1 1 3 5 4 5 9 9 9 8 5 6 6 7 8 10 8 7 18 29 21 8 7 11 19 20 20 21 21 22 25
20 24 27 22 15 11 14 26 32 30 37 44 41 40 39 37 38 38 38 36 35 34 33 32 30 30 29 27 25 22 25 25 14 6 3 20 22 23 25 23 24 22 23 21 20 20 17 18 16 13 9 2 6 8 8 7 4 4 1 4 7 10 10 11 10 8 7 6 7 7 8 7 11 9 5 19 28 22 15 8 6 14 20 21 22 22 23 25
21 23 27 28 22 16 14 19 25 22 26 40 44 42 41 40 39 39 40 38 37 35 34 33 30 30 27 27 26 18 23 29 21 9 4 20 25 25 26 23 25 24 23 22 20 20 19 21 20 15 9 5 7 6 9 8 4 7 6 5 8 14 14 11 8 5 5 5 4 6 6 5 9 7 9 22 23 18 19 16 10 12 19 22 22 23 23 25
18 20 25 31 32 28 22 17 17 16 16 28 43 46 42 42 41 41 42 40 38 36 34 32 30 30 27 28 24 11 19 27 21 10 5 20 26 25 26 23 24 24 22 22 20 20 20 19 20 19 11 6 7 5 9 9 3 6 6 6 8 15 16 11 7 6 5 5 4 7 5 3 7 5 8 17 15 15 19 20 19 15 17 22 23 23 24 25
13 15 18 25 33 37 35 27 21 18 15 17 33 46 45 43 43 43 44 42 40 37 33 32 30 30 29 30 23 11 16 22 20 15 9 19 26 25 27 25 24 23 21 22 20 19 17 14 16 18 8 3 6 3 5 7 5 4 2 5 8 14 17 11 7 6 4 4 5 6 3 2 4 4 11 14 8 10 14 19 22 20 18 21 23 24 24 25
13 13 15 19 28 36 38 35 30 22 18 14 22 40 46 44 44 44 46 45 42 38 33 31 31 32 30 28 24 19 16 15 20 19 13 20 27 25 26 24 22 22 21 21 20 17 14 11 13 14 7 6 7 2 3 6 5 4 2 3 5 8 12 12 6 3 2 2 4 4 1 2 3 8 17 14 9 10 11 16 20 21 20 20 23 25 25 26
16 13 13 15 21 31 34 34 33 26 20 16 16 33 47 45 45 45 46 47 44 40 36 32 31 32 28 21 21 23 16 12 18 18 16 23 27 26 26 25 23 22 21 19 17 16 13 11 12 13 10 9 8 4 3 4 3 3 3 2 2 4 6 10 5 2 3 3 4 5 2 6 6 16 20 11 10 11 11 16 19 21 21 21 24 26 27 27
19 16 13 12 14 23 29 29 30 27 22 18 15 27 48 48 43 45 45 47 46 42 38 34 31 30 25 18 19 24 20 13 16 18 19 26 29 28 28 26 24 22 20 16 14 14 14 12 12 13 10 8 9 6 2 2 1 1 1 1 1 1 5 5 1 2 3 3 6 7 3 6 7 16 17 11 13 13 13 16 18 21 22 22 23 25 28 28
18 18 15 12 12 15 23 25 25 24 22 22 19 19 39 48 41 43 44 43 45 42 39 36 33 30 22 15 18 23 23 18 17 18 21 29 31 30 29 27 25 22 19 15 14 14 14 14 13 11 9 8 9 6 3 2 2 1 1 1 1 3 4 6 3 6 4 2 5 7 3 6 8 13 12 12 15 15 17 18 18 22 22 22 22 23 26 27
15 17 19 15 13 13 18 22 21 21 20 23 23 16 24 43 42 41 42 41 41 40 39 37 37 33 17 11 16 21 25 24 18 16 24 33 32 30 30 26 23 21 18 15 15 16 15 14 12 10 10 8 6 5 4 2 1 2 2 3 1 3 2 4 3 6 5 1 2 4 3 3 5 9 6 9 15 15 18 21 20 22 24 24 23 23 24 25
17 18 20 18 15 15 17 20 20 20 19 20 22 19 16 33 45 41 40 41 39 41 42 39 41 33 14 10 16 22 30 30 21 17 25 35 32 29 29 26 23 21 19 16 16 19 16 13 11 7 6 4 3 5 4 2 4 2 1 3 2 2 3 2 3 3 4 3 2 3 3 4 6 8 4 2 8 13 17 22 22 22 23 25 25 25 26 26
20 20 21 20 18 17 16 20 21 19 19 18 18 19 16 25 45 44 41 44 41 43 39 35 38 24 11 20 25 27 33 33 26 19 25 35 32 29 30 27 24 21 20 18 16 17 13 8 8 4 2 3 4 6 5 5 5 5 4 3 2 1 2 1 3 2 2 2 3 3 4 7 9 12 13 7 4 9 14 18 20 20 23 25 26 28 28 28
19 21 22 22 20 19 17 18 20 19 18 16 15 18 21 23 43 46 46 50 40 30 20 29 40 14 5 28 31 27 33 34 29 22 26 34 32 29 30 26 23 23 21 14 9 13 10 6 5 4 3 4 6 6 5 3 5 6 4 3 2 2 2 2 3 3 3 1 4 5 6 8 8 11 17 13 8 9 11 13 17 20 23 25 26 28 29 30
17 21 23 24 22 21 19 18 19 19 17 16 16 17 19 18 23 24 39 51 44 31 16 35 49 13 6 23 30 25 29 32 30 26 27 33 33 29 27 25 21 18 14 8 6 9 9 5 3 5 7 8 7 6 5 4 6 7 5 3 2 1 3 3 3 4 4 1 5 5 5 8 9 10 13 11 7 10 12 13 17 19 22 25 27 29 30 31
16 21 24 26 25 23 21 20 19 19 18 18 18 15 19 18 3 6 31 41 44 40 21 34 48 19 6 20 31 32 29 25 26 29 27 30 35 27 22 22 15 8 6 9 9 6 6 5 6 8 9 10 8 7 6 5 6 6 5 4 3 2 2 4 3 5 3 1 4 3 3 9 9 11 15 9 5 11 16 16 19 21 22 23 25 28 29 31
16 20 24 25 27 25 23 22 20 20 20 20 21 20 27 29 12 3 23 20 28 35 21 33 41 22 14 19 30 39 32 21 20 29 29 30 33 23 18 17 10 6 5 9 9 4 4 3 9 9 8 8 6 6 6 4 5 5 4 4 2 0 2 5 3 4 3 2 3 3 2 8 9 10 14 11 10 17 22 22 23 25 24 24 25 26 27 28
16 19 23 25 27 28 25 23 22 21 22 22 25 27 32 36 22 10 18 10 13 19 20 33 30 21 24 23 31 39 32 22 20 30 33 33 31 25 21 15 8 8 6 8 8 6 5 6 10 11 9 9 5 6 7 3 3 3 3 4 1 0 0 2 2 4 2 2 3 3 4 6 7 8 11 12 15 20 25 24 25 26 26 28 29 28 27 26
16 18 22 25 27 27 26 24 23 24 26 26 30 33 31 32 24 12 8 5 6 7 21 33 26 26 28 24 31 36 27 22 22 31 35 32 27 21 20 15 11 9 8 10 10 9 6 6 9 14 9 10 8 6 8 4 3 2 3 4 2 2 2 3 3 6 4 2 2 3 5 6 6 7 8 8 7 13 20 20 23 26 27 29 31 31 31 30
15 17 19 24 25 25 22 21 25 27 29 31 33 35 33 31 29 21 10 1 4 6 18 26 22 26 29 25 30 32 25 18 18 30 36 32 27 18 14 15 12 9 10 11 8 8 5 3 14 16 7 9 8 5 7 6 4 2 3 5 5 5 4 3 4 6 5 4 3 2 3 5 4 5 8 5 4 8 12 12 19 26 27 28 31 32 33 33
14 15 17 24 26 22 18 19 29 30 29 36 35 31 32 29 31 29 13 1 5 5 13 22 20 21 26 26 30 29 19 11 14 30 36 31 29 22 14 10 6 7 12 9 4 4 3 4 12 13 9 10 8 6 7 8 6 4 5 8 7 6 4 3 5 3 1 4 2 3 2 6 5 5 7 4 5 9 9 8 16 25 26 27 30 33 34 34
13 14 16 23 26 23 22 23 29 31 32 38 36 31 29 26 29 27 9 2 7 8 12 18 19 23 27 28 35 25 9 13 18 27 36 31 26 23 16 9 5 7 11 8 3 3 5 8 8 9 11 9 7 7 7 9 8 3 5 10 9 6 5 4 4 2 3 4 3 2 2 4 5 6 6 3 5 9 10 9 12 20 25 27 30 33 35 35
13 13 15 22 28 28 28 24 24 34 39 36 33 32 27 24 26 20 6 4 5 8 11 12 14 25 31 32 33 16 8 24 20 18 35 32 21 16 11 11 10 11 13 11 7 3 6 11 11 11 10 6 7 8 8 11 6 6 7 10 8 6 5 4 3 3 2 3 5 3 2 2 5 6 5 3 4 8 10 10 10 16 23 25 28 30 32 33
12 11 14 21 27 30 29 23 24 34 39 34 30 28 25 24 19 10 4 4 2 5 11 16 14 22 31 26 20 12 15 21 10 14 32 28 19 10 4 10 13 13 13 9 5 1 2 10 15 14 8 7 8 6 10 13 6 5 6 7 4 4 4 2 2 2 1 2 7 4 0 3 5 5 4 2 3 6 8 8 9 16 22 23 25 26 27 28
13 10 13 19 26 31 28 27 30 29 28 34 33 25 24 23 13 7 7 4 3 2 10 17 15 21 29 19 9 11 14 8 10 20 21 15 17 10 6 12 13 10 7 2 3 1 2 5 11 9 6 8 7 5 8 13 9 7 7 6 6 4 4 2 1 2 0 5 5 3 3 2 5 5 4 5 5 6 7 7 9 14 20 23 21 20 20 19
17 14 13 18 27 31 29 33 37 30 23 29 33 28 22 14 6 5 7 3 3 3 8 13 14 20 25 17 9 12 11 7 15 22 11 5 9 6 7 11 8 6 3 2 2 3 5 4 5 4 6 9 8 4 2 4 8 8 5 5 4 2 3 2 2 2 3 6 3 1 2 3 6 6 4 6 6 5 5 7 9 13 19 23 16 11 11 11
20 19 16 19 26 31 35 36 34 32 27 22 27 28 15 5 4 5 4 5 4 6 7 12 16 18 20 17 12 11 10 8 14 18 12 7 6 6 7 8 8 7 6 9 6 1 2 1 2 2 7 11 10 4 3 3 4 5 4 5 4 1 1 2 2 1 4 5 2 1 1 3 8 7 6 9 9 8 10 14 16 16 21 24 18 13 12 12
19 20 19 21 25 32 40 36 27 30 31 24 26 24 9 5 7 3 3 3 4 6 8 14 19 20 21 17 12 11 9 8 12 14 14 10 7 8 5 4 8 6 5 10 7 4 3 5 2 2 3 9 12 8 4 1 3 6 5 5 5 4 4 4 3 1 4 5 3 2 1 4 5 4 9 12 13 17 20 23 24 22 24 26 24 24 22 20
19 20 22 24 27 34 37 34 29 29 32 31 24 14 8 10 5 4 4 4 2 6 7 12 17 19 17 12 10 12 7 6 13 13 12 11 8 8 6 6 10 3 5 8 6 7 7 4 5 5 3 8 10 8 8 8 6 6 5 5 5 5 4 4 3 3 4 4 3 2 2 3 2 3 8 12 16 21 23 24 25 26 28 27 26 28 30 29
19 20 24 25 30 34 33 35 35 28 31 32 16 5 10 10 3 3 5 3 3 6 7 11 17 17 12 7 9 9 3 4 13 11 9 11 10 11 11 11 12 6 7 8 4 5 7 4 3 0 2 10 10 8 10 11 6 4 3 4 4 6 5 3 3 5 4 2 3 3 4 4 3 6 9 10 14 18 21 23 22 23 24 23 23 25 26 27
19 23 26 29 34 34 32 40 39 29 31 27 9 6 10 5 3 4 6 6 7 10 12 12 14 13 8 6 9 5 5 3 12 8 7 10 9 12 12 10 12 9 9 9 4 3 6 2 3 4 2 6 9 9 9 9 6 3 3 5 5 5 7 4 2 1 3 3 4 2 5 5 4 7 9 9 11 13 14 15 14 17 17 16 19 19 18 19
21 25 28 33 38 35 35 44 42 34 34 20 6 10 6 2 4 5 7 10 12 16 17 12 10 11 9 6 8 8 4 6 10 7 7 9 8 12 11 8 12 14 10 7 2 3 6 2 3 2 2 2 2 6 5 2 4 5 5 7 4 2 3 4 1 1 1 4 5 2 5 5 4 6 5 6 10 13 14 10 8 11 13 14 18 18 16 17
25 27 32 39 40 36 37 42 42 41 31 12 9 14 5 2 7 8 9 12 14 17 14 10 8 9 12 11 11 14 13 11 11 9 9 8 6 14 17 11 12 17 12 6 3 2 4 4 3 1 3 1 1 5 4 4 3 4 6 6 5 2 2 2 2 3 2 4 5 3 4 5 6 6 4 5 8 10 13 10 6 8 11 12 16 16 16 16
27 25 31 43 42 39 39 40 44 42 22 6 12 14 5 4 7 12 19 16 13 16 13 9 9 8 12 15 13 15 15 13 14 11 9 9 5 12 21 14 9 17 16 7 4 3 3 4 1 2 1 0 1 2 6 2 4 4 4 4 2 2 4 3 3 3 3 3 4 3 4 4 6 6 6 9 11 10 13 12 7 9 12 11 13 14 13 13
28 19 27 43 41 37 42 42 40 31 12 6 13 10 6 7 8 17 29 24 13 11 11 11 12 11 13 13 13 12 10 10 15 10 6 10 6 6 17 15 8 15 15 6 4 5 3 4 3 0 2 1 2 3 7 8 4 2 4 4 2 2 2 2 2 2 4 3 3 3 6 6 4 5 9 12 12 12 14 14 8 8 12 11 11 12 11 9
29 15 23 41 37 36 45 38 23 13 7 10 14 10 9 9 8 16 28 29 18 8 8 12 14 13 13 13 12 11 8 8 13 10 4 10 9 4 13 18 11 13 12 3 3 6 2 3 5 3 1 3 3 4 5 8 8 7 6 7 7 5 4 3 4 1 2 3 4 2 7 9 4 4 7 9 9 11 16 16 8 4 8 8 5 6 6 4
26 14 22 34 34 43 46 24 9 10 10 12 14 12 11 9 10 17 21 24 18 5 4 10 12 10 10 12 13 13 11 9 12 11 5 10 12 5 11 21 22 20 14 5 3 4 3 5 5 3 4 4 4 4 3 3 5 6 4 5 6 6 6 6 6 3 1 2 2 3 6 9 4 4 6 7 9 11 15 14 9 5 5 3 3 4 4 5
24 27 34 32 37 53 42 11 8 15 10 13 17 16 15 10 10 17 18 17 12 3 4 7 8 9 7 8 13 13 10 8 11 13 6 5 9 6 13 26 27 21 13 6 5 5 4 4 5 2 1 3 5 3 1 1 3 3 2 2 6 5 5 5 5 4 2 3 2 2 6 7 2 2 6 10 12 13 12 9 9 9 4 2 3 5 6 5
29 39 40 33 46 60 35 6 11 16 10 15 19 18 18 12 12 18 19 16 11 5 6 6 7 10 8 10 15 16 14 9 9 12 6 4 6 9 21 33 30 20 12 9 10 9 5 3 5 5 2 3 3 3 2 3 2 3 2 3 5 5 8 5 3 4 2 6 8 4 9 8 4 4 5 8 8 11 11 8 8 10 4 1 3 7 8 7
27 31 31 41 63 63 35 18 18 14 15 19 17 20 19 10 14 24 22 19 17 12 10 10 12 11 9 12 14 16 17 12 8 9 4 2 4 7 22 35 31 21 14 13 16 13 6 4 6 8 7 7 8 7 6 5 3 1 3 6 7 10 12 7 3 3 8 9 11 10 11 5 4 3 2 4 3 6 11 9 9 11 7 3 4 6 6 6
17 15 16 33 55 53 37 36 29 15 18 21 13 19 20 8 11 25 25 20 19 18 12 8 12 11 10 15 13 12 15 10 6 9 6 6 4 3 19 35 31 24 19 20 24 16 3 2 7 8 11 13 11 7 6 12 11 8 10 13 13 13 15 10 4 6 8 4 8 15 12 3 4 3 3 5 4 6 9 9 10 12 9 3 2 2 2 4
21 14 11 16 24 26 24 29 25 15 19 22 13 15 21 15 11 19 23 18 15 15 8 5 12 13 12 18 14 11 16 8 5 13 15 12 6 2 15 26 25 25 24 23 27 17 3 5 11 11 14 12 5 4 9 15 16 16 15 16 14 13 13 12 12 12 6 5 8 10 8 7 7 6 6 7 6 5 8 11 12 10 8 5 3 3 5 7
24 13 24 31 18 11 17 21 20 19 21 21 15 15 22 22 17 17 18 15 14 14 7 6 15 18 18 22 15 11 16 10 5 13 15 12 9 8 11 13 16 27 25 18 21 14 4 10 13 12 16 8 4 5 10 13 12 12 15 17 15 14 16 18 22 16 10 8 12 7 11 13 10 7 9 8 8 9 9 10 10 9 9 7 7 8 11 13
22 11 29 44 26 12 20 24 22 23 22 19 14 14 21 24 21 18 14 12 13 14 10 11 16 19 20 21 16 12 16 13 10 13 14 15 14 12 12 9 12 23 21 13 12 8 4 9 8 10 13 3 6 2 8 9 6 6 12 16 15 17 20 22 26 20 14 18 14 6 7 11 7 8 9 8 11 12 8 7 9 11 13 11 11 14 17 20
23 19 24 27 19 17 22 24 24 22 19 18 15 13 18 22 22 18 14 16 17 13 13 16 20 22 22 22 19 17 20 22 20 19 18 19 17 13 13 11 9 13 12 9 6 2 3 6 3 6 8 0 6 4 2 4 5 5 8 10 13 17 21 24 23 14 12 19 14 5 10 11 6 7 10 12 13 8 7 11 14 17 17 15 16 19 23 26
33 47 45 24 11 17 20 18 23 21 16 17 15 13 17 21 23 17 12 18 22 19 19 21 22 21 20 23 24 21 26 29 25 22 22 22 17 10 5 6 10 12 9 7 4 2 2 2 3 6 6 2 4 5 6 6 5 2 5 11 17 20 19 18 14 10 13 16 12 11 15 9 5 8 13 15 13 8 11 17 20 23 25 24 24 26 29 30
37 52 59 37 15 17 19 14 19 21 16 16 15 15 18 21 23 20 13 14 21 26 27 25 23 18 15 22 29 29 30 26 17 16 22 23 20 16 14 17 20 17 11 6 3 3 5 5 3 5 7 3 3 5 8 7 6 2 10 15 19 18 13 9 8 12 17 13 9 13 14 6 7 10 11 10 9 11 18 24 28 31 33 32 32 31 31 29
Wind_Direction
235 206 197 200 203 207 212 208 203 202 199 200 199 198 199 198 197 195 192 192 192 192 191 192 195 198 202 206 207 207 205 206 209 212 217 218 218 220 219 217 215 211 214 220 216 215 217 212 211 212 213 202 79 44 103 155 146 125 103 115 203 183 194 188 180 187 162 300 313 261 213 192 188 194 194 196 201 215 203 199 203 205 214 214 207 205 183 184
238 225 203 199 200 204 211 207 200 200 199 199 199 198 198 197 195 192 190 190 190 190 190 191 194 197 200 201 201 201 202 208 215 219 224 225 222 220 220 220 217 213 210 215 222 223 219 220 225 226 220 206 209 297 54 122 134 111 113 150 218 193 202 192 175 178 157 306 299 289 237 216 215 189 186 197 199 194 197 208 215 216 215 212 213 211 190 188
238 237 221 204 200 201 207 210 204 201 200 198 198 197 196 196 194 189 188 188 187 188 188 188 191 194 194 195 194 195 200 206 216 221 224 227 226 219 218 222 221 217 211 208 216 228 231 226 241 235 211 193 205 224 15 61 139 114 126 204 236 213 229 220 189 183 206 278 290 296 242 220 226 198 190 195 179 189 209 212 214 219 217 216 219 208 192 191
239 241 239 221 205 199 201 210 207 200 199 197 195 196 195 195 193 188 187 186 185 186 186 186 187 188 187 187 187 190 195 206 225 225 222 222 226 224 223 229 224 218 213 207 209 220 229 221 224 218 193 164 190 221 281 44 66 160 154 195 227 192 234 239 215 213 291 279 281 284 237 226 225 205 196 180 152 226 231 219 217 223 219 213 216 206 194 194
234 238 243 242 223 205 198 205 206 198 197 196 193 194 194 194 193 188 185 184 184 184 185 185 186 184 182 183 186 188 187 200 244 231 227 224 228 230 229 228 218 214 211 207 208 203 210 211 199 189 178 154 157 195 251 345 53 168 209 224 201 163 242 285 273 308 349 343 267 248 230 232 212 207 206 188 184 231 235 229 226 230 226 218 216 206 196 197
227 233 236 242 239 225 202 201 206 200 195 193 192 192 192 193 192 188 185 183 182 182 183 184 184 183 182 185 189 191 187 173 91 221 225 219 223 223 219 215 207 206 204 204 202 192 192 191 182 176 164 147 161 167 215 218 23 247 248 278 313 210 263 306 317 310 323 323 249 239 244 227 192 210 217 205 215 227 242 246 236 232 228 223 219 208 201 202
208 223 228 229 228 228 205 199 204 204 195 191 190 191 191 191 191 189 185 182 180 180 181 182 182 182 183 186 190 193 196 200 162 29 213 199 205 206 201 204 199 194 194 195 194 191 189 180 175 172 157 117 177 189 205 207 257 229 280 333 350 334 295 316 318 305 307 287 269 259 244 221 194 207 225 221 226 227 244 273 246 232 224 219 217 213 213 212
204 215 223 227 220 212 207 198 199 203 196 190 189 190 191 190 190 189 185 182 180 177 177 177 177 180 182 183 182 187 201 210 215 314 247 182 188 193 192 198 196 193 193 195 196 193 192 186 182 172 160 163 183 192 196 195 246 233 269 319 320 319 314 324 318 304 306 290 276 246 228 223 209 210 235 235 232 229 234 253 260 233 221 218 218 217 219 217
225 227 226 228 227 225 220 201 199 203 193 192 193 191 190 190 189 189 186 183 180 176 176 175 175 179 180 182 180 185 207 211 213 256 251 178 183 191 192 197 196 195 195 196 201 199 197 195 193 190 188 184 177 187 183 178 237 222 225 272 291 305 317 331 319 315 315 288 260 222 222 229 212 214 250 245 243 241 237 241 250 237 223 219 220 220 220 221
228 232 231 229 230 237 234 220 222 222 201 195 196 193 189 189 189 189 187 183 180 177 176 176 177 179 179 181 179 188 211 210 212 232 222 178 181 190 194 200 196 191 191 192 199 202 201 202 200 200 201 182 171 174 177 180 200 191 220 263 269 288 305 320 306 303 303 281 246 214 216 217 192 182 246 247 247 246 239 238 240 239 230 224 222 222 222 225
222 221 229 230 230 237 238 239 249 246 234 207 195 195 190 186 188 189 188 185 181 179 177 178 179 179 181 182 180 191 211 211 210 214 209 179 180 190 193 197 194 185 183 186 192 198 200 205 202 196 194 170 167 160 184 193 195 176 227 266 265 282 293 300 297 297 291 276 248 214 198 197 164 183 238 241 243 249 239 233 234 235 234 227 224 223 223 227
211 207 219 228 229 235 238 243 249 252 250 224 197 197 193 188 187 187 189 187 184 181 178 179 182 181 181 186 191 200 209 209 205 210 208 182 182 192 192 191 191 185 184 185 186 191 196 198 198 192 181 159 152 137 222 197 193 191 166 237 288 309 289 282 290 283 233 250 235 179 223 263 185 225 239 242 249 255 244 232 231 232 234 229 225 223 223 228
202 202 210 218 226 235 238 243 245 252 254 234 211 201 197 192 187 186 189 189 188 185 183 183 186 185 182 187 200 206 211 209 204 209 200 185 187 190 188 187 189 188 191 194 189 189 194 197 202 194 176 161 150 134 179 165 170 184 127 138 348 353 276 272 286 251 202 223 192 147 263 268 238 237 237 240 245 244 240 235 232 232 234 231 227 226 226 228
193 198 204 210 221 232 237 242 243 248 251 236 225 208 199 194 189 187 189 190 191 189 188 189 190 190 190 192 203 207 211 209 201 202 195 187 186 184 183 186 188 192 196 202 201 193 194 199 201 185 159 153 157 142 105 59 95 149 106 106 134 217 263 278 269 171 187 220 185 152 247 265 263 251 239 238 242 239 240 240 236 233 234 233 230 230 230 230
186 191 194 208 219 228 233 239 239 241 246 239 238 221 197 193 190 187 189 190 191 191 190 192 194 193 193 199 208 208 209 208 194 193 195 188 184 182 182 185 188 193 195 199 201 191 189 192 186 164 137 133 143 131 67 16 16 57 190 225 156 197 275 304 243 188 191 235 182 156 235 259 269 268 251 241 241 238 240 243 240 236 234 234 234 235 236 236
189 188 190 203 214 225 231 233 236 235 242 243 243 246 202 192 189 187 190 190 188 190 189 190 193 191 190 200 207 206 205 206 191 181 190 188 185 182 180 183 184 186 188 193 194 180 178 179 163 142 133 135 137 118 81 64 337 356 216 221 171 168 243 304 268 206 186 167 194 184 231 261 282 288 273 240 238 231 236 242 241 239 237 236 237 239 241 241
197 190 192 200 207 221 230 232 238 236 238 244 244 254 229 195 190 188 188 188 188 188 189 191 190 188 193 201 199 200 200 200 191 175 182 186 187 185 180 176 174 178 177 175 174 165 164 162 147 139 134 125 128 121 110 181 221 223 193 207 200 164 187 257 300 236 168 143 230 222 230 246 264 282 299 268 239 224 228 240 241 239 239 238 238 240 243 244
203 195 194 199 206 213 224 234 239 240 236 242 248 248 250 206 190 187 184 184 183 181 185 188 183 184 206 204 199 198 197 195 189 176 175 182 186 187 181 173 170 170 157 152 159 158 155 149 138 133 98 107 150 155 171 202 195 176 170 181 203 210 194 261 299 269 143 154 229 221 237 259 261 270 275 282 265 232 235 245 246 245 243 242 241 242 244 246
202 200 197 199 206 209 220 233 236 243 231 233 248 239 252 217 182 180 181 179 174 170 179 179 176 179 214 198 196 194 194 191 187 179 173 177 181 184 180 172 168 161 146 140 163 165 149 121 119 132 141 168 181 173 174 169 133 140 144 144 165 243 250 253 269 298 352 282 249 231 231 251 250 263 271 267 261 253 254 257 253 250 247 245 245 245 247 248
199 201 201 200 204 209 219 227 231 239 226 227 238 231 251 224 172 167 172 174 176 175 180 178 179 177 73 171 181 181 185 184 182 178 175 177 176 174 169 162 157 152 148 144 165 173 151 130 162 178 180 182 179 163 141 108 115 124 107 95 109 10 306 284 277 318 350 275 263 250 236 255 250 254 266 265 265 259 253 254 255 255 251 248 248 248 250 251
202 201 202 203 204 208 215 220 224 228 223 230 233 232 240 222 181 130 164 172 184 184 183 181 183 188 127 165 179 179 173 172 177 174 173 178 175 168 161 160 152 143 158 138 132 151 142 151 205 200 185 174 168 161 142 101 93 101 97 85 62 67 288 278 279 310 330 194 269 293 254 261 258 258 263 259 253 258 251 246 252 256 257 255 252 253 255 255
212 204 203 205 206 209 211 214 219 218 220 230 231 237 235 230 271 221 171 170 183 187 184 178 181 184 167 169 183 184 172 160 173 174 171 174 176 173 163 162 157 146 148 131 124 127 137 205 223 199 165 143 141 152 153 129 97 89 101 98 59 54 282 275 280 330 345 192 270 335 308 261 259 260 263 251 236 256 258 252 254 257 260 261 260 260 261 262
220 213 206 204 206 210 209 211 216 215 218 225 228 232 234 239 255 207 176 156 165 186 178 173 177 167 154 158 175 181 172 160 172 175 172 172 175 175 166 161 159 148 152 157 150 144 164 243 218 176 143 130 133 155 161 178 136 108 112 117 140 205 25 252 280 334 326 207 264 314 313 276 268 268 269 256 240 252 261 257 257 256 257 261 262 264 265 265
219 218 211 205 206 210 211 212 213 216 218 223 230 230 232 243 243 213 182 128 120 174 170 171 175 165 157 159 172 176 169 166 175 175 175 172 167 169 165 159 152 150 170 171 157 161 197 261 175 153 150 148 143 156 158 179 201 155 136 137 148 178 181 209 294 326 315 328 350 329 314 286 265 264 264 264 247 252 258 257 257 255 254 257 259 261 261 261
216 217 213 205 207 209 210 215 215 216 218 223 231 230 234 242 239 246 278 40 130 155 162 169 172 169 166 164 171 172 162 163 177 175 175 172 164 158 156 160 160 163 174 162 149 177 230 254 154 149 154 148 140 162 166 165 188 220 188 159 164 191 208 243 311 342 345 331 346 23 313 283 292 276 253 269 321 276 265 261 257 256 255 253 254 257 258 258
218 220 214 204 207 206 203 217 217 213 218 225 228 229 236 237 234 245 272 325 199 165 156 170 171 172 172 162 160 161 157 162 179 177 173 172 169 158 148 159 165 164 162 149 147 192 216 174 152 147 150 148 149 179 185 166 160 232 203 160 179 197 187 265 299 337 324 285 298 93 214 267 313 300 259 283 320 291 282 277 260 258 259 255 254 256 256 255
220 222 217 205 205 204 205 218 216 211 219 225 223 224 234 234 232 240 259 287 215 163 154 169 167 174 173 161 156 155 160 160 164 179 175 169 169 164 160 164 149 160 155 136 175 203 145 158 153 145 151 154 168 186 194 164 146 232 202 161 185 197 179 243 273 232 235 282 308 57 140 262 289 269 267 305 300 290 287 281 268 261 259 257 256 256 256 255
220 219 220 209 205 205 208 215 216 215 220 224 221 221 227 230 230 232 239 256 194 136 152 160 157 168 163 157 158 149 139 154 154 184 179 169 167 165 170 175 155 159 165 157 185 196 132 164 174 160 157 169 186 188 172 154 155 235 197 160 178 176 170 220 241 234 266 321 292 316 56 259 270 271 297 328 265 276 279 271 267 260 256 256 257 258 258 258
221 217 220 212 209 210 213 217 217 220 222 224 225 223 224 227 224 217 234 238 137 118 158 151 145 154 148 148 157 132 136 157 146 171 177 174 173 167 149 168 153 150 173 171 163 174 153 183 177 159 163 189 187 176 158 161 184 214 158 112 107 115 109 157 200 217 317 291 259 264 170 251 269 268 283 305 251 254 267 264 255 256 256 255 257 260 263 264
229 219 215 216 215 213 218 224 219 220 224 223 225 226 223 221 209 207 237 214 113 143 148 144 148 151 146 144 151 138 140 149 123 144 166 173 170 169 120 137 136 135 175 172 128 196 344 170 172 161 174 178 156 132 159 174 167 129 111 83 68 61 65 75 123 108 213 271 265 236 192 219 272 264 226 227 227 215 237 263 266 263 262 261 262 266 268 269
238 231 216 218 220 214 217 224 219 214 214 219 223 221 217 212 188 215 230 152 113 186 145 142 149 152 153 149 149 157 143 126 138 144 152 156 156 163 130 130 123 110 147 195 190 320 23 115 176 178 160 143 115 89 115 168 142 113 103 107 91 31 49 55 12 81 212 255 289 254 170 168 240 258 225 237 251 222 217 248 263 267 269 271 268 263 269 273
243 241 228 221 224 218 217 222 220 213 210 214 214 209 205 210 204 211 195 141 163 197 161 145 148 153 158 152 147 156 140 135 157 153 152 156 156 172 169 163 158 146 177 192 184 42 69 166 242 183 167 155 135 115 38 30 114 117 113 126 126 147 137 192 228 177 228 252 258 198 134 202 241 252 247 259 271 259 243 242 247 257 268 274 275 269 271 274
243 243 235 226 225 223 219 220 222 218 216 213 203 194 193 240 223 167 142 191 182 172 161 153 156 157 156 152 148 144 132 144 164 158 152 153 163 178 187 197 181 170 174 175 162 154 201 298 269 164 193 178 159 150 148 142 161 156 147 152 160 158 165 202 219 260 261 266 252 182 165 264 277 270 234 238 248 249 250 252 257 263 269 273 277 278 277 273
240 241 238 231 227 227 224 218 218 221 219 215 204 187 199 223 216 103 152 220 170 143 155 152 150 150 149 147 147 142 125 152 164 157 151 150 160 180 188 205 203 180 104 149 168 173 185 250 212 177 181 176 170 169 161 146 159 181 163 148 161 162 169 188 193 212 235 263 270 218 194 216 227 276 240 234 251 259 258 260 263 267 270 275 279 280 279 276
240 241 239 236 229 229 228 216 214 221 216 211 209 197 209 210 195 141 161 178 164 142 141 146 144 145 146 133 147 150 90 152 164 152 154 161 169 182 183 191 194 162 131 164 182 171 184 230 251 284 153 163 167 174 148 130 156 205 143 133 192 194 163 146 188 180 169 253 264 214 228 220 205 279 278 254 258 266 263 262 263 263 267 276 279 279 278 277
244 242 241 240 231 229 228 214 213 222 212 204 216 227 213 212 203 179 154 158 167 145 136 150 153 150 143 132 160 165 24 125 162 153 166 170 175 188 188 189 186 176 167 165 146 155 177 231 331 19 60 169 171 169 158 153 170 167 149 182 201 177 142 127 250 62 89 250 261 207 247 291 317 284 283 270 261 268 266 260 261 267 273 277 277 279 276 274
247 244 243 241 232 228 226 215 214 220 210 199 230 227 209 233 201 163 153 166 161 151 148 159 170 158 146 138 162 165 110 134 160 157 165 170 185 196 196 200 190 189 187 163 148 195 156 115 339 60 113 250 170 136 132 126 132 133 183 195 156 104 106 110 214 325 60 250 269 242 241 273 282 267 308 310 267 264 270 268 268 275 275 271 274 277 279 283
251 254 250 245 235 226 222 216 214 216 208 195 230 226 208 199 192 159 160 164 156 161 162 166 174 163 161 162 165 168 158 152 165 165 163 175 204 192 190 200 190 188 194 167 137 213 141 107 320 298 152 250 20 116 120 5 42 132 176 171 137 151 207 133 177 202 182 249 275 297 279 255 224 235 296 303 258 255 270 281 290 279 273 276 285 289 292 298
251 255 252 246 236 224 220 217 213 212 209 193 218 220 195 189 197 169 165 164 165 172 169 170 173 166 175 171 160 168 170 162 167 167 168 181 207 194 190 193 179 182 190 172 144 184 141 121 226 287 138 154 8 158 182 186 25 52 115 138 125 138 172 171 167 172 172 228 276 318 312 266 214 201 212 237 250 255 265 272 271 274 286 299 302 302 302 304
244 246 250 244 233 221 216 214 210 208 208 208 210 206 176 186 195 176 171 169 174 183 176 173 173 169 175 166 153 165 172 159 165 172 179 179 184 209 196 190 167 171 177 155 132 168 142 121 161 283 17 165 200 209 187 169 148 123 135 157 180 117 124 167 166 141 143 180 231 293 287 266 232 187 189 214 237 243 254 262 250 262 289 299 296 293 295 302
240 240 249 239 229 213 205 205 207 202 202 215 211 201 190 192 182 177 179 176 178 199 195 177 175 172 166 159 154 161 158 150 169 180 180 180 185 217 199 186 159 154 163 139 151 172 143 120 141 134 140 189 233 252 197 172 168 170 173 184 183 155 128 168 218 231 92 172 190 217 271 267 238 193 195 208 223 227 242 255 248 248 280 291 304 301 301 332
235 240 242 230 219 203 195 194 200 195 205 211 202 191 189 196 183 175 182 185 185 204 199 175 176 170 162 161 157 158 158 155 176 186 187 194 194 198 193 177 157 156 164 154 163 161 103 101 116 133 192 206 258 268 223 193 146 137 185 191 165 161 149 161 212 230 112 225 148 113 272 275 247 195 207 219 233 239 248 264 282 291 287 309 13 17 11 23
231 241 240 228 208 194 187 191 202 193 207 202 195 193 186 191 188 172 176 189 191 178 159 172 169 161 161 157 151 155 156 150 178 186 176 192 195 178 170 162 152 159 168 156 164 162 130 112 101 96 276 304 302 301 328 339 99 136 227 150 143 177 155 143 182 174 167 220 127 98 265 268 281 252 246 248 255 266 272 282 290 286 299 2 36 60 63 67
237 243 239 223 203 191 183 199 195 186 199 194 192 196 190 194 193 177 175 182 185 173 163 170 171 169 167 154 156 166 164 155 188 193 174 177 186 164 161 159 157 166 182 178 173 166 156 134 115 120 84 7 322 302 283 262 213 190 190 118 137 128 99 104 141 105 234 208 155 183 247 243 268 298 277 264 269 285 283 267 264 266 264 39 79 91 89 83
246 246 225 197 191 187 185 195 187 179 192 190 192 193 188 198 200 187 179 176 180 179 173 182 180 166 153 156 166 176 173 166 176 181 165 143 162 158 162 164 167 175 183 169 156 151 152 161 151 148 154 175 192 210 214 189 168 192 148 147 161 142 142 168 138 135 234 208 163 206 241 252 301 308 303 287 273 279 271 247 242 252 238 160 110 104 89 65
234 230 201 178 180 181 186 193 188 183 188 185 189 192 184 184 199 192 184 179 183 180 170 176 172 155 151 164 168 180 186 181 152 158 162 153 163 199 173 171 174 177 171 155 150 147 119 177 182 179 187 191 188 187 146 128 146 188 180 172 180 176 174 172 143 194 217 173 188 225 228 230 297 278 275 278 243 247 262 236 224 236 234 209 143 115 45 12
226 210 184 164 169 173 182 190 189 187 187 183 181 185 183 178 180 189 189 186 184 175 155 138 160 160 165 168 166 182 189 185 143 164 172 165 153 130 170 176 179 173 165 157 157 150 97 202 195 201 212 208 175 158 142 142 170 188 178 178 184 180 174 176 201 210 156 129 231 224 184 202 246 247 248 257 236 232 248 236 227 226 226 242 276 298 303 300
216 195 170 164 158 165 177 182 185 183 184 187 186 177 180 180 175 181 187 181 177 176 160 146 169 173 171 170 170 179 184 186 173 174 174 166 152 135 162 189 189 173 167 166 168 158 154 208 199 198 212 211 92 145 166 163 179 180 176 185 183 177 180 194 215 210 153 195 233 167 155 203 220 216 225 226 216 221 227 226 229 235 241 261 287 292 292 291
192 179 168 164 157 159 169 166 173 182 184 189 194 185 181 182 179 177 173 164 176 188 176 161 173 176 173 174 173 171 179 186 191 187 177 171 168 156 158 185 200 185 175 170 177 169 172 204 199 189 202 210 43 148 179 163 156 163 187 193 184 187 194 204 217 213 196 224 232 153 178 227 215 207 226 228 224 225 228 231 240 254 260 268 279 287 294 295
177 166 160 158 152 156 161 162 171 181 185 186 193 193 185 184 183 178 172 168 171 183 181 173 175 176 175 179 182 184 188 189 192 190 177 171 175 174 172 174 176 182 179 172 180 184 178 192 163 147 179 325 21 35 69 121 144 166 200 203 198 203 208 215 221 212 211 236 243 249 265 261 228 219 239 246 241 231 237 249 253 259 264 268 274 281 286 287
176 164 158 151 144 161 164 167 172 176 184 189 189 184 184 188 184 174 179 184 176 173 181 180 177 176 178 183 189 196 195 193 194 189 176 174 172 158 155 163 149 153 164 167 159 91 100 169 70 100 157 254 357 65 65 53 63 67 237 217 210 211 214 220 220 200 211 228 229 242 256 249 195 213 233 244 252 255 256 259 262 264 265 268 272 274 277 278
168 161 160 153 145 166 166 165 175 179 183 182 179 179 181 185 181 172 177 197 189 184 186 181 172 171 178 190 199 204 197 193 191 177 172 173 161 134 123 137 145 151 153 145 140 122 123 130 101 127 162 243 324 114 111 73 54 303 245 219 210 215 216 219 227 220 218 213 203 228 240 209 170 200 219 234 240 240 246 251 255 259 261 264 266 267 269 270